[[{"header":{"parameterUnit":"m.s-1","parameterCategory":1,"la1":30.2991,"la2":30.254,"lo1":-89.0895,"lo2":-89.0444,"dy":0.0017,"dx":0.0017,"nx":28,"ny":28,"refTime":"2024-07-22T21:00:00:Z","depth":0,"parameterNumber":2,"parameterNumberName":"U-component_of_WINDS"},"data":[0,0,0,0,0,0,0,0,0,0,0,0,0,0,0,0,0,0,0,0,0,0,0,0,0,0,0,0,0,0,0,0,0,0,0,0,0,0,0,0,0,0,0,0,0,0,0,0,0,0,0,0,0,0,0,0,0,0,1.1947,1.1948,0,1.2024,1.2024,1.2025,1.2073,1.2073,1.2073,1.2073,1.2155,1.2156,1.2158,0,0,0,0,0,0,0,0,0,0,0,0,0,1.1845,1.1846,1.1947,1.1948,1.1949,1.2023,1.2024,1.2025,1.2073,1.2073,1.2073,1.2073,1.2154,1.2156,1.2159,0,0,0,0,0,0,0,0,0,0,0,0,0,1.1902,1.1847,1.1947,1.1981,1.1985,1.2023,1.2024,1.2026,1.2073,1.2073,1.2073,1.2074,1.2153,1.2156,1.2159,1.2169,0,0,1.2168,1.2169,0,0,0,0,0,0,0,0,1.1899,1.1906,1.1975,1.1979,1.1983,1.2039,1.2018,1.2074,1.2072,1.2039,1.2073,1.2074,1.2116,1.2122,1.2136,1.2173,1.2177,1.2168,1.217,1.2171,1.2172,0,0,0,0,0,0,0,1.1895,1.1903,1.1977,1.1976,1.1981,1.1994,1.2002,1.2029,1.2075,1.2042,1.2046,1.2054,1.2118,1.2133,1.2138,1.2178,1.2168,1.217,1.2172,1.2173,1.2229,1.2229,0,0,0,0,0,0,1.1885,1.1899,1.1975,1.198,1.1941,1.1995,1.2005,1.2021,1.2075,1.2083,1.2054,1.2056,1.2128,1.2134,1.2141,1.2157,1.2171,1.2174,1.2175,1.2229,1.2229,1.2229,0,0,0,0,0,0,1.1882,1.1891,1.1972,1.194,1.1952,1.1997,1.2014,1.2022,1.2036,1.2083,1.2092,1.206,1.2128,1.2137,1.2162,1.2161,1.2175,1.2178,1.2229,1.2229,1.2229,1.2189,0,0,0,0,0,0,1.1879,1.189,1.1894,1.194,1.1953,1.199,1.2014,1.2023,1.2041,1.2045,1.2091,1.2099,1.2129,1.2157,1.2165,1.2165,1.218,1.223,1.2229,1.2229,1.2191,1.2187,1.2184,0,0,0,0,0,1.1875,1.188,1.1893,1.1902,1.1958,1.199,1.1998,1.2031,1.2041,1.2045,1.2075,1.2098,1.2159,1.2159,1.2168,1.2169,1.223,1.2229,1.2229,1.2192,1.2188,1.2185,0,0,0,0,0,0,1.1833,1.1887,1.1902,1.1922,1.1951,1.1998,1.2005,1.2026,1.2053,1.2056,1.2097,1.2107,1.2128,1.2152,1.215,1.2183,1.2197,1.2199,1.2166,1.2163,1.216,1.2154,1.2182,0,0,0,0,0,1.1826,1.1846,1.1892,1.1905,1.1919,1.1959,1.1974,1.1997,1.203,1.2043,1.2075,1.2106,1.2133,1.2149,1.2176,1.2194,1.2206,1.2199,1.2196,1.2194,1.2194,1.2206,1.2204,1.2227,1.2227,1.2227,0,0,1.1811,1.1843,1.1853,1.1897,1.1923,1.1944,1.1969,1.1991,1.2007,1.2046,1.2071,1.2096,1.2134,1.2156,1.2167,1.2176,1.219,1.2193,1.219,1.2192,1.2205,1.2203,1.2201,1.2226,1.2226,1.2226,0,0,1.1795,1.1821,1.1835,1.186,1.1897,1.1924,1.1928,1.1972,1.1989,1.2015,1.2045,1.2066,1.2111,1.2136,1.2155,1.215,1.2172,1.2158,1.2141,1.2152,1.2151,1.2149,1.2147,1.2146,1.2158,1.2158,1.2158,0,1.1773,1.1805,1.1839,1.1859,1.1878,1.1913,1.1928,1.1951,1.1996,1.2008,1.2017,1.2074,1.2102,1.2131,1.2129,1.2143,1.2149,1.2152,1.2148,1.2147,1.2146,1.2145,1.2144,1.2156,1.2156,1.2156,1.2157,0,1.1775,1.1797,1.1804,1.1845,1.1865,1.1882,1.192,1.1936,1.1957,1.1984,1.201,1.2045,1.208,1.2088,1.211,1.212,1.2124,1.214,1.2156,1.2141,1.2141,1.2141,1.2153,1.2154,1.2154,1.2155,0,0,1.1735,1.1795,1.1797,1.1816,1.1861,1.1879,1.1898,1.1931,1.1944,1.1974,1.1992,1.2029,1.2044,1.2065,1.209,1.21,1.2093,1.2115,1.2116,1.2109,1.2107,1.2095,1.2093,1.2108,1.2108,1.2108,1.2104,0,1.1725,1.176,1.1792,1.1815,1.1836,1.1871,1.1888,1.1917,1.1943,1.1965,1.1994,1.2019,1.2037,1.205,1.2061,1.2092,1.2093,1.2093,1.2125,1.2126,1.2114,1.2093,1.208,1.2074,1.2104,1.2104,1.2104,0,1.1719,1.1747,1.1772,1.1815,1.1825,1.1839,1.1872,1.1893,1.1928,1.1945,1.1969,1.1995,1.2018,1.2032,1.2064,1.2062,1.2078,1.2095,1.2096,1.21,1.2114,1.2097,1.2073,1.2072,1.2104,1.2104,1.2104,0,1.1687,1.1731,1.1751,1.1767,1.1817,1.1827,1.1848,1.1883,1.1901,1.1931,1.1943,1.1975,1.1992,1.2017,1.2052,1.2058,1.208,1.2097,1.2096,1.2095,1.2099,1.2098,1.2077,1.2109,1.2109,1.2109,1.2109,0,1.1673,1.1687,1.1737,1.175,1.1767,1.1805,1.1821,1.1846,1.1877,1.1896,1.1928,1.1945,1.199,1.2013,1.204,1.2063,1.2071,1.2086,1.2093,1.2083,1.2081,1.2094,1.2095,1.2109,1.2109,1.2109,1.2109,0,1.164,1.1674,1.1699,1.1744,1.1756,1.1767,1.1807,1.1821,1.1848,1.1871,1.1879,1.1922,1.1951,1.1987,1.2028,1.2047,1.2066,1.2077,1.2054,1.2058,1.2055,1.2055,1.2042,1.2042,1.2073,1.2073,1.2073,0,1.1628,1.164,1.1687,1.1701,1.1722,1.1745,1.1763,1.1801,1.1819,1.1859,1.1869,1.19,1.1926,1.1971,1.2006,1.2038,1.2049,1.2043,1.2054,1.2044,1.2049,1.2048,1.205,1.2039,1.2039,1.2039,1.2038,0,1.1605,1.1621,1.1646,1.1677,1.1697,1.1724,1.1752,1.1762,1.1805,1.1824,1.1853,1.1874,1.1915,1.1946,1.1982,1.2005,1.2029,1.2034,1.2036,1.2025,1.2011,1.2019,1.2046,1.2034,1.2035,1.2035,1.2035,1.2035,1.1583,1.1594,1.1629,1.1656,1.168,1.1706,1.1721,1.175,1.1775,1.181,1.1832,1.186,1.1895,1.1946,1.1969,1.1992,1.2001,1.2003,1.2004,1.2004,1.2001,1.2008,1.1999,1.1999,1.1999,1.1999,1.1999,0,1.1561,1.1585,1.1609,1.1646,1.1667,1.1687,1.1719,1.1736,1.176,1.1791,1.1816,1.185,1.188,1.1917,1.195,1.1962,1.1973,1.1969,1.1968,1.1973,1.1991,1.1986,1.1959,1.1959,1.1959,1.1959,1.1959,1.1959,1.1552,1.1573,1.1594,1.1628,1.1652,1.1679,1.1696,1.172,1.1744,1.178,1.1805,1.1829,1.1863,1.1898,1.1927,1.1937,1.1948,1.194,1.1953,1.1969,1.1972,1.1976,1.1971,1.1942,1.1942,1.1934,1.1934,1.1934]},{"header":{"parameterUnit":"m.s-1","parameterCategory":1,"la1":30.2991,"la2":30.254,"lo1":-89.0895,"lo2":-89.0444,"dy":0.0017,"dx":0.0017,"nx":28,"ny":28,"refTime":"2024-07-22T21:00:00:Z","depth":0,"parameterNumber":3,"parameterNumberName":"V-component_of_WINDS"},"data":[0,0,0,0,0,0,0,0,0,0,0,0,0,0,0,0,0,0,0,0,0,0,0,0,0,0,0,0,0,0,0,0,0,0,0,0,0,0,0,0,0,0,0,0,0,0,0,0,0,0,0,0,0,0,0,0,0,0,2.3521,2.352,0,2.3461,2.346,2.346,2.3435,2.3435,2.3435,2.3435,2.337,2.3368,2.3366,0,0,0,0,0,0,0,0,0,0,0,0,0,2.3607,2.3606,2.3521,2.352,2.3519,2.3461,2.346,2.346,2.3435,2.3435,2.3435,2.3435,2.337,2.3368,2.3366,0,0,0,0,0,0,0,0,0,0,0,0,0,2.3561,2.3605,2.3521,2.35,2.3498,2.3461,2.346,2.3459,2.3435,2.3435,2.3435,2.3435,2.3371,2.3368,2.3365,2.3344,0,0,2.3357,2.3356,0,0,0,0,0,0,0,0,2.3563,2.3558,2.3504,2.3501,2.3499,2.3456,2.3467,2.342,2.3435,2.3458,2.3435,2.3436,2.3398,2.3393,2.3381,2.3341,2.3338,2.3357,2.3355,2.3354,2.3353,0,0,0,0,0,0,0,2.3567,2.356,2.3497,2.3503,2.35,2.3492,2.3485,2.3458,2.3427,2.3456,2.3455,2.3448,2.3396,2.3384,2.3379,2.3337,2.3357,2.3354,2.3352,2.3351,2.3274,2.3274,0,0,0,0,0,0,2.3574,2.3563,2.3499,2.3495,2.3532,2.349,2.3483,2.3469,2.3428,2.3422,2.3448,2.3447,2.3388,2.3383,2.3377,2.3348,2.3354,2.3351,2.3349,2.3274,2.3274,2.3274,0,0,0,0,0,0,2.3576,2.3569,2.3501,2.3528,2.3519,2.3488,2.3473,2.3468,2.3455,2.3421,2.3415,2.3441,2.3388,2.3381,2.3352,2.3345,2.335,2.3347,2.3275,2.3274,2.3274,2.3291,0,0,0,0,0,0,2.3579,2.3569,2.3563,2.3529,2.3518,2.3479,2.3473,2.3467,2.3451,2.345,2.3413,2.3408,2.3388,2.3357,2.3349,2.3341,2.3345,2.3275,2.3275,2.3274,2.3291,2.3291,2.3291,0,0,0,0,0,2.3582,2.3569,2.3562,2.3555,2.3509,2.3479,2.3473,2.3452,2.3451,2.3442,2.342,2.3409,2.3347,2.3354,2.3346,2.3337,2.3276,2.3275,2.3274,2.3291,2.3291,2.3291,0,0,0,0,0,0,2.3602,2.3564,2.3556,2.3533,2.3509,2.3475,2.3464,2.3453,2.3429,2.3428,2.3401,2.3393,2.3367,2.3349,2.3357,2.3313,2.331,2.3308,2.3326,2.3326,2.3326,2.333,2.3343,0,0,0,0,0,2.3604,2.3584,2.3552,2.3534,2.3523,2.3495,2.3482,2.3468,2.3442,2.3431,2.3407,2.3381,2.3356,2.334,2.3315,2.3288,2.3278,2.3277,2.3277,2.3278,2.3276,2.3258,2.3257,2.3271,2.3271,2.3271,0,0,2.3607,2.3584,2.3573,2.3537,2.3518,2.3496,2.3487,2.3466,2.3449,2.3428,2.3399,2.3381,2.3349,2.3321,2.3308,2.3306,2.327,2.3277,2.3277,2.3275,2.3257,2.3256,2.3255,2.327,2.327,2.3271,0,0,2.3602,2.3583,2.3566,2.3546,2.3517,2.3499,2.3494,2.3461,2.3448,2.342,2.3403,2.3382,2.3339,2.3317,2.3301,2.3286,2.3273,2.3278,2.3279,2.3262,2.3261,2.326,2.3253,2.3251,2.3276,2.3276,2.3276,0,2.3609,2.3578,2.3557,2.3536,2.352,2.3501,2.3482,2.3463,2.3427,2.3415,2.3413,2.3359,2.3336,2.3302,2.3299,2.3286,2.3279,2.3282,2.3263,2.3262,2.326,2.3254,2.3252,2.3277,2.3277,2.3277,2.3277,0,2.3588,2.3566,2.3555,2.3522,2.3504,2.3484,2.3459,2.3443,2.343,2.3411,2.3381,2.3354,2.3322,2.3313,2.3299,2.3276,2.3275,2.3269,2.3266,2.326,2.3253,2.3251,2.3278,2.3278,2.3277,2.3277,0,0,2.3594,2.3549,2.3545,2.3529,2.3495,2.3477,2.3455,2.3425,2.3412,2.3386,2.3366,2.333,2.3323,2.3304,2.3288,2.3274,2.3262,2.3268,2.3267,2.3267,2.3232,2.3237,2.3235,2.3253,2.3253,2.3252,2.3234,0,2.3584,2.3546,2.3526,2.3496,2.3475,2.3455,2.3435,2.3411,2.3393,2.337,2.3349,2.3323,2.3317,2.3305,2.329,2.3267,2.3254,2.3267,2.3232,2.3231,2.3241,2.3231,2.3237,2.3221,2.3232,2.3231,2.3231,0,2.3568,2.3544,2.3512,2.3479,2.3469,2.3452,2.3422,2.3402,2.3373,2.336,2.3339,2.3322,2.3296,2.3295,2.3257,2.3267,2.3251,2.3237,2.3235,2.3231,2.3231,2.3226,2.3216,2.3214,2.3227,2.3227,2.3228,0,2.3575,2.3534,2.351,2.3497,2.3458,2.3446,2.3429,2.34,2.3383,2.3356,2.3344,2.3314,2.3298,2.3274,2.3249,2.3251,2.3213,2.321,2.32,2.3201,2.3193,2.3194,2.318,2.3184,2.3184,2.3184,2.3184,0,2.3565,2.3546,2.3512,2.3497,2.3474,2.345,2.3427,2.3408,2.3383,2.3362,2.3342,2.3323,2.3291,2.3267,2.3247,2.3218,2.3211,2.3198,2.3193,2.32,2.3201,2.3189,2.3189,2.3183,2.3183,2.3183,2.3183,0,2.3569,2.3546,2.3518,2.3483,2.3474,2.3458,2.3428,2.3411,2.3391,2.3364,2.3357,2.3325,2.3295,2.3268,2.3228,2.3214,2.3184,2.3178,2.3195,2.3192,2.3183,2.3184,2.316,2.3155,2.3163,2.3163,2.3163,0,2.3565,2.355,2.3514,2.3499,2.3483,2.3459,2.3442,2.3416,2.3399,2.3364,2.3351,2.332,2.3294,2.3246,2.3218,2.3187,2.3179,2.3173,2.3175,2.3181,2.3178,2.3179,2.3177,2.3173,2.3173,2.3174,2.3174,0,2.3559,2.3548,2.3525,2.3497,2.3477,2.3454,2.3429,2.3418,2.3387,2.3368,2.3338,2.3318,2.3277,2.3246,2.3211,2.3191,2.3176,2.3173,2.3169,2.3176,2.3186,2.3179,2.3195,2.3174,2.3174,2.3174,2.3174,2.3174,2.3558,2.3543,2.3516,2.3489,2.3469,2.3446,2.3428,2.3406,2.3381,2.3348,2.3333,2.3303,2.3271,2.3224,2.3203,2.3177,2.3174,2.3169,2.3167,2.3166,2.3167,2.319,2.3171,2.3171,2.3171,2.3171,2.3171,0,2.3551,2.3532,2.3508,2.3475,2.3454,2.3444,2.3415,2.3398,2.3372,2.3345,2.332,2.3284,2.3253,2.3222,2.3189,2.3174,2.3166,2.3166,2.3167,2.3162,2.3172,2.3178,2.3173,2.3173,2.3173,2.3173,2.3173,2.3173,2.3544,2.3518,2.3504,2.3466,2.3447,2.3418,2.3402,2.338,2.3359,2.332,2.3295,2.3276,2.3246,2.3211,2.3181,2.3173,2.3161,2.3162,2.3152,2.3161,2.3162,2.3162,2.3168,2.316,2.316,2.3144,2.3144,2.3144]}]]